{"data":{"norad_id":52935,"epoch":"2026-09-20T23:24:46.454688Z","epoch_age_seconds":93339,"freshness":"FRESH","line1":"1 52935U 22072A   26263.97553767  .00003372  00000+0  13428-3 0  9990","line2":"2 52935   9.9920 186.7472 0004259 282.1873  77.7865 15.14484883233050","mean_motion":15.14484883,"eccentricity":0.0004259,"inclination_deg":9.992,"raan_deg":186.7472,"arg_perigee_deg":282.1873,"mean_anomaly_deg":77.7865,"bstar":0.00013428,"rev_number":23305,"period_min":95.081833840926,"perigee_km":519.60385486388,"apogee_km":525.48185396387,"semimajor_km":6900.6798544139,"source":"CELESTRAK","updated_at":"2026-09-21T09:00:08.763220Z"}}